DLH62S PAKT-CYXY

Flight info

Callsign DLH62S
Flight time 1h 4m
Altitude 36000
Route ANN3 ANN Q902 SSR J536 YXY
Aircraft A320/M-SDE3FGHIRWY/LB1

Departure

Time 2026-05-07 14:49
Airport Ketchikan International Airport (PAKT)

Arrival

Time 2026-05-07 15:54
Airport Whitehorse / Erik Nielsen International Airport (CYXY)
Time Latitude Longitude Altitude Speed Heading
2026-05-07 14:36 55.35657 -131.71029 69 ft 0 kts 45°
2026-05-07 14:41 55.35644 -131.71053 86 ft 8 kts 45°
2026-05-07 14:41 55.35627 -131.71082 85 ft 2 kts 53°
2026-05-07 14:41 55.35617 -131.71103 88 ft 2 kts 61°
2026-05-07 14:41 55.35609 -131.71124 88 ft 2 kts 75°
2026-05-07 14:42 55.35605 -131.71148 91 ft 2 kts 115°
2026-05-07 14:42 55.35609 -131.71166 94 ft 2 kts 135°
2026-05-07 14:42 55.35616 -131.71180 92 ft 2 kts 133°
2026-05-07 14:42 55.35618 -131.71183 92 ft 0 kts 139°
2026-05-07 14:43 55.35615 -131.71179 92 ft 4 kts 138°
2026-05-07 14:43 55.35557 -131.71074 92 ft 12 kts 147°
2026-05-07 14:43 55.35511 -131.70995 92 ft 7 kts 131°
2026-05-07 14:43 55.35480 -131.70938 92 ft 7 kts 131°
2026-05-07 14:44 55.35446 -131.70870 94 ft 8 kts 134°
2026-05-07 14:44 55.35407 -131.70814 93 ft 6 kts 142°
2026-05-07 14:44 55.35383 -131.70780 94 ft 3 kts 140°
2026-05-07 14:44 55.35373 -131.70765 94 ft 1 kts 140°
2026-05-07 14:45 55.35344 -131.70720 91 ft 13 kts 138°
2026-05-07 14:45 55.35280 -131.70612 92 ft 13 kts 140°
2026-05-07 14:45 55.35224 -131.70520 92 ft 9 kts 140°
2026-05-07 14:45 55.35184 -131.70452 92 ft 7 kts 139°
2026-05-07 14:46 55.35151 -131.70396 92 ft 6 kts 140°
2026-05-07 14:46 55.35118 -131.70343 92 ft 8 kts 137°
2026-05-07 14:46 55.35115 -131.70337 93 ft 0 kts 137°
2026-05-07 14:47 55.35114 -131.70336 93 ft 2 kts 137°
2026-05-07 14:48 55.35061 -131.70248 98 ft 12 kts 137°
2026-05-07 14:48 55.34990 -131.70134 100 ft 21 kts 137°
2026-05-07 14:48 55.34884 -131.70060 99 ft 13 kts 198°
2026-05-07 14:48 55.34864 -131.70194 99 ft 15 kts 311°
2026-05-07 14:49 55.34986 -131.70412 97 ft 52 kts 315°
2026-05-07 14:49 55.35420 -131.71149 99 ft 118 kts 315°
2026-05-07 14:49 55.35865 -131.71913 116 ft 149 kts 316°
2026-05-07 14:49 55.36851 -131.73664 1038 ft 150 kts 315°
2026-05-07 14:50 55.37351 -131.74513 1520 ft 153 kts 317°
2026-05-07 14:50 55.38179 -131.75880 1918 ft 175 kts 317°
2026-05-07 14:50 55.39127 -131.77432 2239 ft 199 kts 317°
2026-05-07 14:50 55.40203 -131.79196 2642 ft 224 kts 318°
2026-05-07 14:51 55.41402 -131.81165 3177 ft 245 kts 318°
2026-05-07 14:51 55.42674 -131.83259 3996 ft 254 kts 318°
2026-05-07 14:51 55.43980 -131.85411 4945 ft 259 kts 317°
2026-05-07 14:51 55.45304 -131.87600 5858 ft 263 kts 316°
2026-05-07 14:52 55.46644 -131.89816 6824 ft 265 kts 315°
2026-05-07 14:52 55.47996 -131.92049 7742 ft 267 kts 315°
2026-05-07 14:52 55.49354 -131.94295 8632 ft 270 kts 315°
2026-05-07 14:52 55.50727 -131.96575 9518 ft 273 kts 314°
2026-05-07 14:53 55.52116 -131.98883 10380 ft 276 kts 314°
2026-05-07 14:53 55.53558 -132.01285 10778 ft 296 kts 314°
2026-05-07 14:53 55.55116 -132.03888 11002 ft 320 kts 314°
2026-05-07 14:53 55.56775 -132.06658 11462 ft 333 kts 314°
2026-05-07 14:54 55.58474 -132.09492 12191 ft 338 kts 314°
2026-05-07 14:54 55.60188 -132.12346 12973 ft 341 kts 314°
2026-05-07 14:54 55.61919 -132.15229 13779 ft 343 kts 314°
2026-05-07 14:54 55.63758 -132.17959 14498 ft 349 kts 322°
2026-05-07 14:55 55.65842 -132.20226 15165 ft 354 kts 325°
2026-05-07 14:55 55.67965 -132.22469 15825 ft 357 kts 324°
2026-05-07 14:55 55.70103 -132.24736 16474 ft 359 kts 324°
2026-05-07 14:55 55.72257 -132.27027 17113 ft 362 kts 324°
2026-05-07 14:56 55.74423 -132.29339 17727 ft 365 kts 324°
2026-05-07 14:56 55.76608 -132.31678 18364 ft 368 kts 324°
2026-05-07 14:56 55.78810 -132.34037 18914 ft 371 kts 324°
2026-05-07 14:56 55.81028 -132.36412 19448 ft 373 kts 323°
2026-05-07 14:57 55.83256 -132.38799 20008 ft 375 kts 323°
2026-05-07 14:57 55.85490 -132.41193 20545 ft 376 kts 323°
2026-05-07 14:57 55.87737 -132.43605 21089 ft 378 kts 323°
2026-05-07 14:57 55.89995 -132.46029 21625 ft 380 kts 322°
2026-05-07 14:58 55.92264 -132.48470 22133 ft 382 kts 322°
2026-05-07 14:58 55.94542 -132.50931 22653 ft 384 kts 322°
2026-05-07 14:58 55.96828 -132.53410 23164 ft 385 kts 321°
2026-05-07 14:58 55.99124 -132.55904 23669 ft 387 kts 321°
2026-05-07 14:59 56.01433 -132.58409 24107 ft 389 kts 321°
2026-05-07 14:59 56.03752 -132.60926 24512 ft 391 kts 321°
2026-05-07 14:59 56.06080 -132.63455 24907 ft 392 kts 321°
2026-05-07 14:59 56.08417 -132.65998 25284 ft 394 kts 321°
2026-05-07 15:00 56.10763 -132.68558 25670 ft 396 kts 321°
2026-05-07 15:00 56.13117 -132.71132 26107 ft 397 kts 321°
2026-05-07 15:00 56.15483 -132.73725 26485 ft 399 kts 321°
2026-05-07 15:00 56.17859 -132.76336 26851 ft 401 kts 321°
2026-05-07 15:01 56.20248 -132.78958 27216 ft 403 kts 321°
2026-05-07 15:01 56.22649 -132.81592 27568 ft 405 kts 321°
2026-05-07 15:01 56.25054 -132.84235 27915 ft 407 kts 320°
2026-05-07 15:01 56.27474 -132.86899 28257 ft 408 kts 320°
2026-05-07 15:02 56.29874 -132.89550 28589 ft 410 kts 320°
2026-05-07 15:02 56.32342 -132.92284 28913 ft 412 kts 320°
2026-05-07 15:02 56.34789 -132.94994 29234 ft 414 kts 320°
2026-05-07 15:02 56.37240 -132.97713 29573 ft 415 kts 320°
2026-05-07 15:03 56.39708 -133.00454 29930 ft 417 kts 320°
2026-05-07 15:03 56.42175 -133.03188 30386 ft 415 kts 320°
2026-05-07 15:03 56.44626 -133.05907 30801 ft 412 kts 320°
2026-05-07 15:03 56.47061 -133.08620 31200 ft 410 kts 319°
2026-05-07 15:04 56.49447 -133.11379 31598 ft 406 kts 318°
2026-05-07 15:04 56.51799 -133.14191 31989 ft 404 kts 317°
2026-05-07 15:04 56.54123 -133.17022 32387 ft 401 kts 317°
2026-05-07 15:04 56.56429 -133.19855 32783 ft 400 kts 317°
2026-05-07 15:05 56.58726 -133.22675 33198 ft 398 kts 317°
2026-05-07 15:05 56.61013 -133.25477 33605 ft 396 kts 317°
2026-05-07 15:05 56.63294 -133.28257 34060 ft 394 kts 317°
2026-05-07 15:05 56.65571 -133.31023 34295 ft 393 kts 317°
2026-05-07 15:06 56.70109 -133.36545 34320 ft 392 kts 316°
2026-05-07 15:06 56.74641 -133.42089 34328 ft 392 kts 316°
2026-05-07 15:07 56.79170 -133.47645 34329 ft 392 kts 316°
2026-05-07 15:07 56.83700 -133.53205 34339 ft 392 kts 316°
2026-05-07 15:08 56.88217 -133.58768 34337 ft 392 kts 316°
2026-05-07 15:08 56.92731 -133.64351 34340 ft 392 kts 316°
2026-05-07 15:09 56.97247 -133.69947 34326 ft 392 kts 316°
2026-05-07 15:09 57.01732 -133.75523 34326 ft 392 kts 316°
2026-05-07 15:10 57.06243 -133.81154 34325 ft 392 kts 316°
2026-05-07 15:10 57.10750 -133.86801 34360 ft 392 kts 316°
2026-05-07 15:11 57.15260 -133.92457 34352 ft 392 kts 316°
2026-05-07 15:11 57.19762 -133.98121 34347 ft 392 kts 316°
2026-05-07 15:12 57.24264 -134.03810 34348 ft 392 kts 316°
2026-05-07 15:12 57.28762 -134.09513 34346 ft 392 kts 316°
2026-05-07 15:13 57.33259 -134.15230 34368 ft 392 kts 316°
2026-05-07 15:13 57.37746 -134.20940 34339 ft 390 kts 316°
2026-05-07 15:14 57.42218 -134.26648 34315 ft 391 kts 315°
2026-05-07 15:14 57.46692 -134.32383 34313 ft 391 kts 315°
2026-05-07 15:15 57.51171 -134.38134 34303 ft 391 kts 315°
2026-05-07 15:15 57.55647 -134.43904 34319 ft 391 kts 315°
2026-05-07 15:16 57.60124 -134.49689 34330 ft 392 kts 315°
2026-05-07 15:16 57.64569 -134.55463 34313 ft 392 kts 315°
2026-05-07 15:17 57.69078 -134.61337 34306 ft 393 kts 315°
2026-05-07 15:17 57.73528 -134.67149 34304 ft 392 kts 315°
2026-05-07 15:18 57.78008 -134.72998 34300 ft 393 kts 315°
2026-05-07 15:18 57.82507 -134.78910 34360 ft 393 kts 315°
2026-05-07 15:19 57.86961 -134.84781 34313 ft 394 kts 315°
2026-05-07 15:19 57.91438 -134.90706 34302 ft 394 kts 315°
2026-05-07 15:20 57.95927 -134.96649 34299 ft 394 kts 315°
2026-05-07 15:20 58.00411 -135.02608 34311 ft 395 kts 315°
2026-05-07 15:21 58.04926 -135.08630 34313 ft 395 kts 315°
2026-05-07 15:21 58.09399 -135.14631 34331 ft 395 kts 315°
2026-05-07 15:22 58.13901 -135.20637 34316 ft 399 kts 317°
2026-05-07 15:22 58.16391 -135.23132 34313 ft 412 kts 327°
2026-05-07 15:22 58.19161 -135.24833 34310 ft 426 kts 336°
2026-05-07 15:23 58.22108 -135.25612 34308 ft 441 kts 346°
2026-05-07 15:23 58.25215 -135.25568 34336 ft 448 kts 351°
2026-05-07 15:23 58.31459 -135.25261 34319 ft 449 kts 351°
2026-05-07 15:24 58.37706 -135.24955 34305 ft 449 kts 351°
2026-05-07 15:24 58.43959 -135.24673 34322 ft 450 kts 351°
2026-05-07 15:25 58.50230 -135.24392 34304 ft 451 kts 351°
2026-05-07 15:25 58.56502 -135.24091 34298 ft 452 kts 351°
2026-05-07 15:26 58.62788 -135.23784 34324 ft 452 kts 352°
2026-05-07 15:26 58.69073 -135.23498 34308 ft 451 kts 352°
2026-05-07 15:27 58.75355 -135.23211 34301 ft 451 kts 352°
2026-05-07 15:27 58.81632 -135.22900 34332 ft 451 kts 352°
2026-05-07 15:28 58.87955 -135.22584 34299 ft 452 kts 352°
2026-05-07 15:28 58.94246 -135.22278 34285 ft 452 kts 352°
2026-05-07 15:29 59.00499 -135.22001 34292 ft 452 kts 352°
2026-05-07 15:29 59.06792 -135.21705 34289 ft 452 kts 352°
2026-05-07 15:30 59.12057 -135.21442 34286 ft 452 kts 352°
2026-05-07 15:30 59.18343 -135.21130 34281 ft 452 kts 352°
2026-05-07 15:31 59.25648 -135.20776 34289 ft 452 kts 352°
2026-05-07 15:31 59.31935 -135.20481 34269 ft 452 kts 352°
2026-05-07 15:32 59.37203 -135.20232 34075 ft 453 kts 352°
2026-05-07 15:32 59.40317 -135.20073 33837 ft 453 kts 352°
2026-05-07 15:32 59.43500 -135.19905 33560 ft 453 kts 352°
2026-05-07 15:33 59.46650 -135.19747 33291 ft 453 kts 352°
2026-05-07 15:33 59.49801 -135.19597 33020 ft 453 kts 352°
2026-05-07 15:33 59.52954 -135.19447 32751 ft 453 kts 352°
2026-05-07 15:33 59.56111 -135.19292 32486 ft 454 kts 352°
2026-05-07 15:34 59.59272 -135.19133 32225 ft 455 kts 352°
2026-05-07 15:34 59.62436 -135.18973 31876 ft 455 kts 353°
2026-05-07 15:34 59.65620 -135.18817 30718 ft 462 kts 353°
2026-05-07 15:34 59.68858 -135.18665 29503 ft 468 kts 353°
2026-05-07 15:35 59.72078 -135.18506 28534 ft 468 kts 353°
2026-05-07 15:35 59.75300 -135.18327 27942 ft 459 kts 354°
2026-05-07 15:35 59.78477 -135.18147 27218 ft 454 kts 354°
2026-05-07 15:35 59.81619 -135.17977 26501 ft 449 kts 354°
2026-05-07 15:36 59.84733 -135.17821 25816 ft 444 kts 354°
2026-05-07 15:36 59.87803 -135.17675 25135 ft 440 kts 354°
2026-05-07 15:36 59.90854 -135.17528 24463 ft 437 kts 354°
2026-05-07 15:36 59.93882 -135.17378 23782 ft 433 kts 354°
2026-05-07 15:37 59.96891 -135.17228 23061 ft 429 kts 354°
2026-05-07 15:37 59.99854 -135.17071 22452 ft 423 kts 355°
2026-05-07 15:37 60.02770 -135.16917 21852 ft 417 kts 355°
2026-05-07 15:37 60.05655 -135.16769 21291 ft 412 kts 355°
2026-05-07 15:38 60.08503 -135.16622 20740 ft 407 kts 355°
2026-05-07 15:38 60.11314 -135.16475 20197 ft 401 kts 355°
2026-05-07 15:38 60.14090 -135.16334 19687 ft 397 kts 355°
2026-05-07 15:38 60.16833 -135.16198 19211 ft 392 kts 355°
2026-05-07 15:39 60.19544 -135.16068 18697 ft 388 kts 355°
2026-05-07 15:39 60.22228 -135.15941 18174 ft 384 kts 356°
2026-05-07 15:39 60.24882 -135.15808 17664 ft 379 kts 356°
2026-05-07 15:39 60.27504 -135.15670 17178 ft 375 kts 356°
2026-05-07 15:40 60.30099 -135.15534 16676 ft 371 kts 357°
2026-05-07 15:40 60.32672 -135.15402 16176 ft 368 kts 357°
2026-05-07 15:40 60.35231 -135.15273 15578 ft 369 kts 358°
2026-05-07 15:40 60.37795 -135.15148 15023 ft 367 kts 358°
2026-05-07 15:41 60.40351 -135.15020 14488 ft 366 kts 359°
2026-05-07 15:41 60.42892 -135.14887 13938 ft 365 kts 359°
2026-05-07 15:41 60.45391 -135.14756 13336 ft 363 kts 360°
2026-05-07 15:41 60.47939 -135.14620 12745 ft 360 kts
2026-05-07 15:42 60.50398 -135.14487 12181 ft 357 kts
2026-05-07 15:42 60.52871 -135.14355 11604 ft 354 kts
2026-05-07 15:42 60.55356 -135.14221 11015 ft 351 kts
2026-05-07 15:42 60.57764 -135.14091 10711 ft 340 kts
2026-05-07 15:43 60.60034 -135.13579 10576 ft 326 kts 13°
2026-05-07 15:43 60.62136 -135.11994 10440 ft 313 kts 27°
2026-05-07 15:43 60.63899 -135.09540 10313 ft 302 kts 40°
2026-05-07 15:43 60.65349 -135.06540 10187 ft 292 kts 45°
2026-05-07 15:44 60.66736 -135.03577 9954 ft 285 kts 45°
2026-05-07 15:44 60.68097 -135.00683 9812 ft 283 kts 45°
2026-05-07 15:44 60.69479 -134.97746 9204 ft 292 kts 45°
2026-05-07 15:44 60.70856 -134.94820 8706 ft 283 kts 45°
2026-05-07 15:45 60.72171 -134.92039 8542 ft 261 kts 42°
2026-05-07 15:45 60.73608 -134.90025 8432 ft 240 kts 21°
2026-05-07 15:45 60.75183 -134.89197 8314 ft 232 kts
2026-05-07 15:45 60.76765 -134.89460 8125 ft 227 kts 343°
2026-05-07 15:46 60.79719 -134.91686 7800 ft 226 kts 338°
2026-05-07 15:46 60.81189 -134.92822 7643 ft 226 kts 338°
2026-05-07 15:46 60.82656 -134.93953 7465 ft 225 kts 338°
2026-05-07 15:47 60.84102 -134.95064 7316 ft 219 kts 338°
2026-05-07 15:47 60.85517 -134.96149 7159 ft 215 kts 338°
2026-05-07 15:47 60.86896 -134.97211 7003 ft 210 kts 337°
2026-05-07 15:47 60.88249 -134.98257 6852 ft 205 kts 337°
2026-05-07 15:48 60.89466 -134.99665 6709 ft 199 kts 315°
2026-05-07 15:48 60.90267 -135.01924 6528 ft 196 kts 291°
2026-05-07 15:48 60.90545 -135.04637 6298 ft 195 kts 268°
2026-05-07 15:48 60.90257 -135.07345 6063 ft 195 kts 248°
2026-05-07 15:49 60.89763 -135.09939 5828 ft 195 kts 249°
2026-05-07 15:49 60.89279 -135.12533 5633 ft 193 kts 249°
2026-05-07 15:49 60.88801 -135.15108 5569 ft 193 kts 249°
2026-05-07 15:49 60.88207 -135.17557 5480 ft 192 kts 226°
2026-05-07 15:50 60.87040 -135.18801 5359 ft 196 kts 186°
2026-05-07 15:50 60.85713 -135.18248 5118 ft 196 kts 160°
2026-05-07 15:50 60.84455 -135.17243 4849 ft 191 kts 161°
2026-05-07 15:50 60.83233 -135.16277 4601 ft 186 kts 160°
2026-05-07 15:51 60.82040 -135.15338 4367 ft 181 kts 160°
2026-05-07 15:51 60.80886 -135.14433 4116 ft 172 kts 160°
2026-05-07 15:51 60.79823 -135.13600 3923 ft 159 kts 160°
2026-05-07 15:51 60.78797 -135.12802 3729 ft 154 kts 160°
2026-05-07 15:52 60.77805 -135.12034 3512 ft 151 kts 160°
2026-05-07 15:52 60.76820 -135.11272 3353 ft 151 kts 160°
2026-05-07 15:52 60.75838 -135.10499 3119 ft 153 kts 159°
2026-05-07 15:52 60.74842 -135.09713 2929 ft 152 kts 159°
2026-05-07 15:53 60.73850 -135.08959 2720 ft 152 kts 160°
2026-05-07 15:53 60.72867 -135.08198 2511 ft 149 kts 159°
2026-05-07 15:53 60.71901 -135.07461 2330 ft 146 kts 158°
2026-05-07 15:53 60.71048 -135.06793 2306 ft 100 kts 159°
2026-05-07 15:54 60.70590 -135.06450 2313 ft 58 kts 159°
2026-05-07 15:54 60.70320 -135.06233 2327 ft 36 kts 158°
2026-05-07 15:54 60.70163 -135.06116 2329 ft 17 kts 173°
2026-05-07 15:54 60.70126 -135.06268 2324 ft 17 kts 302°
2026-05-07 15:55 60.70214 -135.06494 2325 ft 21 kts 314°
2026-05-07 15:55 60.70357 -135.06636 2321 ft 24 kts 340°
2026-05-07 15:55 60.70528 -135.06766 2319 ft 28 kts 340°
2026-05-07 15:55 60.70726 -135.06916 2309 ft 32 kts 339°
2026-05-07 15:56 60.70929 -135.07074 2311 ft 29 kts 340°
2026-05-07 15:56 60.71115 -135.07216 2293 ft 29 kts 340°
2026-05-07 15:56 60.71295 -135.07284 2302 ft 19 kts 346°
2026-05-07 15:56 60.71384 -135.07395 2299 ft 14 kts 295°
2026-05-07 15:57 60.71409 -135.07496 2292 ft 0 kts 297°